Reference Date,Month,Year,Total Departures
2017-01-01,January,2017,47310
2017-02-01,February,2017,54930
2017-03-01,March,2017,69740
2017-04-01,April,2017,106110
2017-05-01,May,2017,116060
2017-06-01,June,2017,122680
2017-07-01,July,2017,141600
2017-08-01,August,2017,157340
2017-09-01,September,2017,121080
2017-10-01,October,2017,94070
2017-11-01,November,2017,61310
2017-12-01,December,2017,68260
2018-01-01,January,2018,46940
2018-02-01,February,2018,54910
2018-03-01,March,2018,70330
2018-04-01,April,2018,95610
2018-05-01,May,2018,124620
2018-06-01,June,2018,127850
2018-07-01,July,2018,141420
2018-08-01,August,2018,161770
2018-09-01,September,2018,127260
2018-10-01,October,2018,97650
2018-11-01,November,2018,64110
2018-12-01,December,2018,68370
2019-01-01,January,2019,49900
2019-02-01,February,2019,57290
2019-03-01,March,2019,71490
2019-04-01,April,2019,104840
2019-05-01,May,2019,121660
2019-06-01,June,2019,126590
2019-07-01,July,2019,143200
2019-08-01,August,2019,165400
2019-09-01,September,2019,122010
2019-10-01,October,2019,97220
2019-11-01,November,2019,64780
2019-12-01,December,2019,69150
2020-01-01,January,2020,50880
2020-02-01,February,2020,56320
2020-03-01,March,2020,28880
2020-04-01,April,2020,500
2020-05-01,May,2020,700
2020-06-01,June,2020,1730
2020-07-01,July,2020,15850
2020-08-01,August,2020,42100
2020-09-01,September,2020,30030
2020-10-01,October,2020,13180
2020-11-01,November,2020,3030
2020-12-01,December,2020,6120
2021-01-01,January,2021,3040
2021-02-01,February,2021,1910
2021-03-01,March,2021,2740
2021-04-01,April,2021,4880
2021-05-01,May,2021,16010
2021-06-01,June,2021,34750
2021-07-01,July,2021,50890
2021-08-01,August,2021,81430
2021-09-01,September,2021,72500
2021-10-01,October,2021,66370
2021-11-01,November,2021,40200
2021-12-01,December,2021,42690
